Terminal Aerodrome Forecast
Issued by NWS Paducah, KY

Home | Current Version | Previous Version | Graphics & Text | Print | Product List | Glossary On
Versions: 1 2 3 4 5 6 7 8 9 10 11 12 13 14 15 16 17 18 19 20
000
FTUS43 KPAH 312300
TAFPAH
TAF
KPAH 312320Z 0100/0124 12003KT P6SM SCT050 OVC100
     FM010900 17005KT P6SM SCT025 BKN050
     FM011500 18011G19KT 3SM -RA BR OVC020
      TEMPO 0115/0119 2SM -RA BR OVC007=

USA.gov is the U.S. government's official web portal to all federal, state and local government web resources and services.